Probability
0 0 0 0 0 0 0 0 0 0 0 0 0 0 0 0 0 0 0 0 0 0 0 2 4 4 2 1 0 0 0 0 0 0 0 0 1 1 0 0 0 0 0 0 0 0 0 0 0
0 0 0 0 0 0 0 0 0 0 0 0 0 0 0 0 0 0 0 0 0 0 0 2 4 4 2 1 0 0 0 0 0 0 0 0 1 1 0 0 0 0 0 0 0 0 0 0 0
0 0 0 0 0 0 0 0 0 0 0 0 0 0 0 0 0 0 0 0 0 0 0 1 3 4 2 0 0 0 0 0 0 0 0 0 1 1 0 0 1 0 0 0 0 0 0 0 0
0 0 0 0 0 0 0 0 0 0 0 0 0 0 0 0 0 0 0 0 0 0 0 0 2 3 2 1 0 0 0 0 0 0 0 0 0 0 0 0 0 0 0 0 0 0 0 0 0
0 0 0 0 0 0 0 0 0 0 0 0 0 0 0 0 0 0 0 0 0 0 0 0 1 2 3 2 1 0 0 0 0 0 0 0 0 0 0 1 1 1 1 0 0 0 0 0 0
0 0 0 0 0 0 0 0 0 0 0 0 0 0 0 0 0 0 0 0 0 0 0 0 1 2 3 3 2 1 0 0 0 0 0 0 0 0 1 2 2 2 2 1 1 1 1 1 0
0 0 0 0 0 0 0 0 0 0 0 0 0 0 0 0 0 0 0 0 0 0 0 1 2 3 3 2 2 2 1 1 0 0 0 0 0 0 1 2 3 3 3 3 2 2 2 2 1
0 0 0 0 0 0 0 0 0 0 0 0 0 0 0 0 0 0 0 0 0 0 0 1 2 2 1 1 1 2 2 1 0 0 0 0 0 0 1 1 1 2 3 3 3 3 3 3 2
0 0 0 0 0 0 0 0 0 0 0 0 0 0 0 0 0 0 0 0 0 0 0 0 1 1 1 1 1 1 1 1 0 0 0 0 0 0 0 0 0 1 2 3 3 3 3 3 2
0 0 0 0 0 0 0 0 0 0 0 0 0 0 0 0 0 0 0 0 0 0 0 0 0 0 1 1 2 1 0 0 0 0 0 0 0 0 0 0 0 0 1 1 2 3 3 2 1
0 0 0 0 0 0 0 0 0 0 0 0 0 0 0 0 0 0 0 0 0 0 0 0 0 0 0 1 2 1 0 0 0 0 0 0 0 0 0 0 0 0 0 0 1 1 2 1 0
0 0 0 0 0 0 0 0 0 0 0 0 0 0 0 0 0 0 0 0 0 0 0 0 0 0 0 0 1 1 0 0 0 0 0 0 0 0 0 0 0 0 0 0 0 0 0 0 0
0 0 0 0 0 0 0 0 0 0 0 0 0 0 0 0 0 0 0 0 0 0 0 0 0 0 0 0 0 0 0 0 0 1 0 0 0 0 0 0 0 0 0 0 0 0 0 0 0
0 0 0 0 0 0 0 0 0 0 0 0 0 0 0 0 0 0 0 0 0 0 0 0 0 0 0 0 0 0 0 0 0 0 0 0 0 0 0 0 0 0 0 0 0 0 0 0 0
0 0 0 0 0 0 0 0 0 0 0 0 0 0 0 0 0 0 0 0 0 0 0 0 0 0 0 0 0 0 0 0 0 0 0 0 0 0 0 0 0 0 0 0 0 0 0 0 0
0 0 0 0 0 0 0 0 0 0 0 0 0 0 0 0 0 0 0 0 0 0 0 0 0 0 0 0 0 0 0 0 0 0 0 0 0 1 0 0 0 0 0 0 0 0 0 0 0
0 0 0 0 0 0 0 0 0 0 0 0 0 0 0 0 0 0 0 0 0 0 0 0 0 0 0 0 0 0 0 0 0 0 0 0 0 0 0 0 0 0 0 0 0 0 0 0 0
0 0 0 0 0 0 0 0 0 0 0 0 0 0 0 0 0 0 0 0 0 0 0 0 0 0 0 1 1 1 0 0 0 0 0 0 0 0 0 0 0 0 0 0 0 0 0 0 0
0 0 0 0 0 0 0 0 0 0 0 0 0 0 0 0 0 0 0 0 0 0 0 0 0 0 1 2 2 2 1 0 0 0 0 0 0 0 0 0 0 1 1 1 0 0 0 0 0
0 0 0 0 0 0 0 0 0 0 0 0 0 0 0 0 0 0 0 0 0 0 0 0 0 0 1 2 3 3 2 0 0 0 0 0 0 0 0 0 0 1 1 1 0 0 0 0 0
0 0 0 0 0 0 0 0 0 0 0 0 0 0 0 0 0 0 0 0 0 0 0 0 0 0 1 2 3 3 2 1 0 0 0 0 0 0 0 0 0 0 0 0 0 0 0 0 0
0 0 0 0 0 0 0 0 0 0 0 0 0 0 0 0 0 0 0 0 0 0 0 0 0 0 0 1 2 2 2 1 0 0 0 0 0 0 0 0 0 0 0 1 1 1 0 0 0
0 0 0 0 0 0 0 0 0 0 0 0 0 0 0 0 0 0 0 0 0 0 0 0 0 0 0 0 1 1 1 1 0 0 0 0 0 0 0 0 0 0 0 1 1 1 1 0 0
0 0 0 0 0 0 0 0 0 0 0 0 0 0 0 0 0 0 0 0 0 0 0 0 0 0 0 0 0 0 0 0 0 0 0 0 0 0 0 0 0 0 0 0 1 2 2 1 0
0 0 0 0 0 0 0 0 0 0 0 0 0 0 0 0 0 0 0 0 0 0 0 0 0 0 0 0 0 0 0 0 0 0 0 0 0 0 0 0 0 0 0 0 1 2 3 2 1
0 0 0 0 0 0 0 0 0 0 0 0 0 0 0 0 0 0 0 0 0 0 0 0 0 0 0 0 0 0 0 0 0 0 0 0 0 0 0 0 0 0 0 0 0 1 2 3 3
0 0 0 0 0 0 0 0 0 0 0 0 0 0 0 0 0 0 0 0 0 0 0 0 0 0 0 0 0 0 0 0 0 0 0 0 0 0 0 0 0 0 0 0 0 0 1 2 3
0 0 0 0 0 0 0 0 0 0 0 0 0 0 0 0 0 0 0 0 0 0 0 0 0 0 0 0 0 0 0 0 0 0 0 0 0 0 0 0 0 0 0 0 0 0 0 1 2
0 0 0 0 0 0 0 0 0 0 0 0 0 0 0 0 0 0 0 0 0 0 0 0 0 0 0 0 0 0 0 0 0 0 0 0 0 0 0 0 0 0 0 0 0 0 0 0 1
0 0 0 0 0 0 0 0 0 0 0 0 0 0 0 0 0 0 0 0 0 0 0 0 0 0 0 0 0 0 0 0 0 0 0 0 0 0 0 0 0 0 0 0 0 0 0 0 0
Wind_Speed
8 5 2 4 6 4 2 4 2 1 1 1 2 6 6 4 2 3 1 3 5 6 5 6 7 8 8 8 8 8 7 7 7 7 7 7 7 7 8 8 8 8 9 9 9 9 10 9 9
4 3 4 5 5 2 4 3 2 2 2 2 3 5 5 3 2 3 1 2 6 6 5 5 7 8 8 8 7 7 7 7 7 7 6 7 7 7 7 7 7 7 8 8 8 9 9 8 8
3 1 4 4 3 5 4 3 4 1 2 2 3 4 4 2 2 2 2 5 6 6 5 5 7 7 8 8 7 7 7 6 6 7 7 6 6 7 7 7 6 7 7 7 8 8 8 7 7
3 4 4 3 3 4 4 3 3 2 2 3 4 4 3 1 1 2 5 6 7 5 5 5 7 7 7 7 7 7 6 6 6 6 6 6 6 6 6 6 6 6 6 6 7 7 7 7 6
4 4 3 1 4 3 2 2 2 2 1 1 3 4 2 2 2 5 6 7 7 5 4 5 7 7 6 6 6 6 6 6 6 5 6 6 6 6 6 6 5 5 5 6 6 6 6 6 6
4 4 3 3 4 3 2 2 1 1 1 1 3 4 2 1 3 4 5 5 6 6 4 4 6 6 6 5 5 5 5 5 5 5 5 5 5 5 5 5 5 5 5 5 5 5 5 5 5
4 3 3 4 3 3 2 0 2 2 1 0 2 4 2 0 1 3 5 5 5 5 4 3 3 4 5 5 5 4 4 4 4 4 4 4 5 5 4 4 4 4 5 5 5 4 4 4 4
4 3 2 3 4 3 1 1 1 2 1 1 2 5 3 3 2 4 5 5 4 4 4 3 3 3 2 3 4 4 4 4 4 4 4 3 4 4 4 3 4 4 4 4 4 3 3 4 4
4 3 3 4 4 2 0 1 2 1 3 2 2 2 2 5 5 6 4 3 3 3 2 3 2 2 2 2 3 3 3 3 3 3 4 4 2 2 2 2 3 3 3 3 2 2 2 3 4
4 3 5 3 2 2 0 1 0 2 2 2 2 3 4 6 6 5 4 3 3 2 1 2 2 2 2 2 2 1 2 2 2 2 2 2 2 1 2 2 2 2 2 2 1 1 2 2 2
3 5 4 2 0 1 1 1 1 3 1 3 3 3 4 4 4 4 4 3 3 3 2 1 1 1 2 1 1 1 1 1 1 2 2 2 2 1 1 1 1 1 1 1 1 1 1 1 1
2 2 3 2 0 1 1 1 1 2 5 3 3 4 5 5 5 4 4 3 2 2 2 2 2 1 1 1 1 1 1 1 1 1 2 2 1 1 0 0 0 0 0 1 1 0 1 1 1
2 2 1 1 1 1 1 1 2 3 3 1 2 3 5 5 4 3 3 2 2 2 2 2 2 2 2 1 1 1 1 1 1 1 1 2 2 1 0 0 0 0 0 0 0 1 1 0 1
2 1 1 2 1 0 1 3 2 5 2 1 2 3 4 5 5 3 2 2 2 3 3 2 2 2 2 2 1 1 1 1 1 1 1 2 2 1 1 0 0 0 0 1 1 1 1 1 1
1 1 3 2 2 2 1 4 5 6 2 2 3 3 3 3 4 4 4 4 4 3 3 3 3 2 2 2 2 1 1 1 1 1 1 2 2 2 2 1 1 1 1 1 0 0 0 1 1
2 1 2 3 1 2 3 6 6 4 3 4 4 3 3 3 4 4 4 3 3 2 2 3 2 2 2 2 1 1 1 1 1 1 1 2 2 3 2 1 1 1 1 1 1 1 0 1 1
1 2 4 4 2 2 4 6 6 3 3 5 4 4 4 4 3 4 4 4 3 3 3 3 2 3 2 2 1 1 1 1 1 1 1 1 2 3 3 2 2 1 1 1 1 1 1 1 1
4 3 3 4 2 2 4 7 7 4 4 5 5 5 4 5 6 5 4 4 3 3 3 3 2 2 2 2 1 1 1 0 0 0 1 1 1 2 2 2 2 2 1 1 1 1 1 1 1
4 3 4 5 3 2 6 8 9 6 4 6 6 5 5 6 5 2 3 3 3 2 3 3 3 2 2 1 1 1 1 1 1 1 1 1 2 2 2 2 2 2 2 2 2 1 1 0 0
3 4 4 4 2 2 4 9 8 7 6 7 7 6 6 4 2 2 2 2 3 3 3 3 3 3 2 2 2 1 1 0 1 1 1 2 2 2 2 2 2 2 2 2 2 1 1 1 1
4 6 5 4 3 2 3 8 6 5 4 4 4 5 4 5 4 3 2 2 2 2 3 3 3 3 2 2 1 2 1 1 0 1 1 2 2 2 2 2 2 3 3 3 3 3 3 2 1
6 4 4 3 0 3 1 5 7 4 4 5 5 4 4 3 3 3 2 2 2 2 2 2 2 2 2 2 2 3 2 2 2 2 2 2 2 2 2 2 2 2 2 3 3 3 2 3 2
4 2 3 2 2 2 2 4 9 2 4 6 5 4 3 2 3 3 2 2 2 1 1 1 1 1 1 1 2 3 2 1 1 1 1 1 1 1 2 2 3 3 2 3 3 2 2 3 3
3 3 3 3 2 4 6 5 8 4 6 4 3 2 3 2 2 1 1 2 1 1 1 1 1 1 0 0 1 2 2 2 1 1 1 1 1 1 1 2 3 3 2 3 3 3 3 3 3
3 4 2 3 1 7 3 5 10 6 4 4 4 3 2 2 3 2 2 1 1 1 2 1 1 0 0 0 1 2 2 3 3 2 2 2 2 2 2 2 3 2 3 3 3 3 3 3 4
5 6 6 6 5 4 2 7 7 4 2 2 2 3 2 2 2 2 2 1 0 0 1 1 1 1 1 1 1 1 1 1 1 2 2 2 2 3 2 2 3 3 3 3 3 3 4 3 4
5 4 3 4 1 2 6 6 7 1 0 1 2 2 2 2 2 2 1 1 1 1 0 0 0 1 1 1 1 1 1 1 1 1 1 2 2 2 2 2 2 2 3 3 3 3 3 3 4
3 4 4 4 4 4 6 5 5 4 4 2 2 2 2 1 1 1 1 0 0 0 0 0 0 1 1 1 1 1 2 2 1 1 2 2 2 2 2 2 2 2 2 2 3 3 3 3 4
3 3 3 3 4 5 4 7 5 5 5 5 4 3 3 2 2 1 1 0 0 1 1 1 1 1 2 2 2 2 2 2 1 2 2 2 2 2 2 2 3 3 3 3 3 3 3 4 4
3 5 6 5 5 4 3 8 3 3 3 4 4 3 2 2 2 2 1 0 1 1 1 1 1 2 2 2 2 2 2 2 2 3 3 3 3 3 3 3 3 3 3 3 4 5 4 5 5
Wind_Direction
328 331 45 57 61 59 234 251 233 305 36 29 80 92 99 94 111 145 127 121 120 135 137 134 131 130 127 125 121 118 115 110 106 106 106 104 100 95 92 88 84 83 83 83 84 90 87 83 79
325 345 52 63 98 152 252 250 213 216 177 140 70 79 79 70 73 106 106 135 129 130 125 126 122 124 123 124 123 121 117 112 108 107 109 107 103 98 95 91 88 86 86 87 86 87 86 82 79
328 44 80 85 137 183 208 221 192 162 91 97 72 58 86 111 124 148 163 140 126 123 116 120 119 124 125 122 119 118 117 115 115 113 108 105 104 101 95 92 90 87 87 87 86 84 81 79 76
49 49 60 92 199 223 209 215 182 135 47 45 102 75 63 27 164 158 135 127 120 116 114 123 120 120 124 123 121 118 112 112 118 118 113 106 101 97 96 98 96 88 86 85 85 84 80 76 73
64 83 86 178 230 243 242 232 183 134 134 47 104 112 107 350 61 119 126 124 123 117 115 122 117 118 116 119 122 123 118 114 115 117 115 113 109 102 97 99 97 91 88 86 86 84 81 74 70
66 81 122 211 229 239 260 248 158 118 130 83 103 119 152 30 84 122 119 118 122 122 117 118 117 116 113 109 115 124 124 123 117 111 118 119 114 107 103 99 96 92 86 83 84 81 79 76 70
114 119 180 201 215 239 243 208 140 157 119 168 140 126 154 286 139 122 113 110 111 116 113 102 115 116 113 107 103 105 109 117 118 112 109 113 110 106 98 93 95 92 84 80 81 77 70 73 68
132 123 189 209 203 229 246 122 113 128 145 9 107 139 187 216 150 109 103 99 100 103 110 109 103 105 107 113 110 105 103 100 103 101 94 99 106 103 92 88 91 91 85 83 82 83 65 61 55
101 103 206 219 194 208 232 94 3 64 94 54 56 133 182 137 120 103 94 86 96 99 108 116 112 114 114 121 118 112 116 107 104 104 105 97 92 96 92 81 90 93 89 84 79 82 65 47 36
106 166 214 230 201 171 109 108 155 63 47 40 43 37 90 120 126 127 131 141 144 141 127 116 126 139 138 132 118 112 113 111 107 110 115 103 93 77 81 77 83 86 79 70 65 60 60 34 17
145 187 210 242 249 126 105 351 346 141 233 216 190 173 139 132 135 143 151 154 168 161 147 138 144 136 137 131 134 121 111 111 111 117 122 108 93 69 66 77 59 55 47 25 7 25 17 10 5
145 220 210 229 29 85 180 205 347 202 221 219 193 166 152 152 163 175 178 175 159 151 168 156 147 137 136 133 149 145 135 130 135 148 132 114 106 90 96 104 87 57 28 17 342 333 333 348 348
179 218 230 216 67 90 102 218 214 251 252 213 132 137 162 174 182 189 180 160 135 161 192 183 162 154 153 140 152 154 163 160 169 158 145 134 136 155 162 178 167 204 109 86 330 296 284 300 309
177 171 271 272 257 203 186 262 228 257 252 182 175 187 180 181 189 184 175 170 173 189 201 198 180 166 154 157 163 170 182 169 158 163 167 156 151 156 156 190 197 217 212 211 214 245 237 253 253
89 49 330 285 233 210 144 300 239 242 219 219 230 209 198 201 191 191 194 190 194 198 200 197 189 168 166 165 174 169 177 146 166 187 178 173 164 167 173 187 211 234 217 200 192 281 279 279 281
47 50 289 287 208 201 154 259 265 245 203 233 245 233 222 224 215 210 201 195 193 188 192 199 179 173 172 166 174 172 175 166 184 197 199 189 180 174 175 191 211 219 191 182 187 194 224 285 285
60 212 236 279 243 183 178 245 268 251 211 236 240 231 229 233 236 226 209 198 188 187 181 180 172 178 178 171 168 167 156 172 193 173 207 212 199 190 182 196 209 199 183 197 215 205 186 227 271
206 208 227 237 253 175 217 249 266 259 230 240 240 238 234 231 237 226 210 198 186 179 169 166 166 175 163 147 126 118 106 146 152 169 205 213 218 204 191 196 204 193 185 204 215 210 191 213 241
169 186 232 246 253 214 236 256 264 260 249 252 249 244 240 243 247 221 203 189 171 163 159 166 167 172 150 144 157 174 212 249 266 239 226 221 229 215 195 205 205 199 198 206 202 200 197 271 44
187 213 244 277 290 236 265 270 264 251 238 232 231 234 235 244 257 229 198 177 178 182 185 180 179 180 184 185 184 180 169 228 244 251 239 236 233 220 206 202 208 203 202 207 201 189 183 240 176
222 215 223 241 322 331 317 296 272 268 254 250 239 227 227 217 220 221 207 190 180 187 197 195 198 197 197 175 123 88 70 44 32 286 256 247 236 221 216 213 212 207 196 208 210 201 189 204 225
231 224 204 205 244 278 197 282 277 258 275 257 247 236 230 221 204 201 191 187 197 214 215 203 195 202 196 163 154 161 183 205 228 239 245 271 251 221 211 206 212 214 209 211 214 210 209 192 209
208 177 183 193 184 276 240 239 278 283 263 259 250 242 235 215 191 191 189 189 199 208 199 195 146 141 155 172 188 188 208 229 245 276 253 269 273 243 216 206 208 216 217 214 214 217 214 209 205
149 84 55 55 89 257 222 205 270 237 228 242 247 237 222 205 177 149 112 87 62 42 46 63 101 88 79 165 208 209 215 221 229 260 248 268 281 267 244 227 219 220 223 219 217 216 218 220 214
133 114 46 351 317 248 217 213 249 243 229 214 208 208 201 175 150 129 101 75 55 44 37 34 71 23 328 222 238 240 235 223 224 232 235 251 272 270 262 250 232 230 232 228 221 217 220 221 219
184 161 172 198 222 268 247 231 250 257 240 187 164 162 150 150 146 144 150 145 143 55 33 37 32 340 325 291 277 270 261 250 253 252 251 248 255 259 262 257 247 237 237 236 226 230 228 223 225
164 195 175 139 101 274 257 268 287 270 349 110 122 123 154 174 162 158 156 156 158 126 97 73 337 330 318 295 298 302 291 277 270 275 273 270 283 286 277 252 254 249 241 237 227 230 232 224 225
164 152 123 146 173 244 272 252 241 222 216 205 189 194 211 209 180 158 152 188 207 153 138 45 332 286 306 317 306 313 301 290 289 285 285 291 292 300 297 285 267 260 251 247 237 240 235 228 231
157 158 155 154 177 180 253 264 233 208 196 195 208 208 206 203 190 192 214 238 95 49 42 27 354 348 343 329 325 331 321 318 317 297 284 282 289 290 282 279 276 267 259 253 246 245 240 233 238
187 182 160 173 223 208 225 266 280 192 190 185 202 210 201 189 183 189 193 106 57 38 19 11 349 335 321 321 328 323 325 328 322 312 307 302 290 288 279 272 269 269 265 254 246 248 245 239 238